< < Back
Terminal Aerodrome Forecast


Current Version              Previous Versions:   1  2  3  4  5  6  7  8  9  

Terminal Aerodrome Forecast

596
FTUS42 KFFC 222100 AAA
TAFFTY
TAF AMD
KFTY 222132Z 2221/2318 33009KT P6SM SKC
     FM230100 00000KT P6SM SKC
     FM231600 32004KT P6SM SKC=

Latest METAR

474
SAUS70 KWBC 230900 RRB
MTRFTY
METAR KFTY 230853Z 00000KT 10SM CLR 06/04 A3011 RMK AO2 SLP194 T00560039
51000 $


USA.gov is the U.S. government's official web portal to all federal, state and local government web resources and services.